Preview of NWS' New Version of Forecast
This preview is not operational and should not be used for support decisions.

Regional Weather Roundup (RWR)

Issued by National Weather Service (NWS)

                            
000
ASUS44 KJAN 180010
RWRMS 

MISSISSIPPI HOURLY WEATHER ROUNDUP
NATIONAL WEATHER SERVICE JACKSON MS
700 PM CDT WED APR 17 2019

NOTE: "FAIR: INDICATES FEW OR NO CLOUDS BELOW 12,000 FEET WITH NO
SIGNIFICANT WEATHER AND/OR OBSTRUCTIONS TO VISIBILITY.

MSZ001>002-007>008-010>013-018>021-025>028-034>036-180100-
NORTHWEST MISSISSIPPI
  
CITY           SKY/WX    TMP DP  RH WIND       PRES   REMARKS
BATESVILLE     FAIR      70  63  78 VRB3      29.86F                  
CLARKSDALE     CLEAR     72  70  94 SE7       29.85F                  
CLEVELAND      FAIR      72  63  74 S9        29.85S                  
GREENWOOD      FAIR      74  60  61 S9        29.86F                  
6HR MIN TEMP:  74; 6HR MAX TEMP:  79;                                

GREENVILLE     FAIR      74  63  68 S10       29.84F                  
6HR MIN TEMP:  71; 6HR MAX TEMP:  75;                                

OLIVE BRANCH   CLOUDY    68  64  88 S9        29.87F                  
OXFORD         FAIR      70  59  68 SE7       29.90F                  
TUNICA           N/A     68  63  83 SE6       29.86F                  
WINONA         FAIR      71  59  66 SE5       29.88F                  
$$

MSZ003>006-009-014>017-022>024-029>033-037>039-180100-
NORTHEAST MISSISSIPPI
  
CITY           SKY/WX    TMP DP  RH WIND       PRES   REMARKS
ABERDEEN       FAIR      70  66  88 SE8       29.96F                  
COLUMBUS AFB   FAIR      72  59  64 S7        29.95F                  
6HR MIN TEMP:  72; 6HR MAX TEMP:  78;                                

CORINTH        FAIR      70  55  60 S7        29.90F                  
GOLDN TRIANGLE FAIR      72  60  66 SE8       29.96F                  
STARKVILLE     FAIR      70  61  73 SE7       29.96S                  
TUPELO         FAIR      70  58  65 S10       29.93S                  
6HR MIN TEMP:  69; 6HR MAX TEMP:  75; 6HR PCP:  0.01;                

$$

MSZ040-058-180100-
CENTRAL MISSISSIPPI
  
CITY           SKY/WX    TMP DP  RH WIND       PRES   REMARKS
JACKSON INTL   MOCLDY    73  62  68 SE7       29.90F                  
6HR MIN TEMP:  73; 6HR MAX TEMP:  78;                                

JACKSON HAWKNS FAIR      73  64  73 S9        29.91F                  
6HR MIN TEMP:  73; 6HR MAX TEMP:  78;                                

MADISON        FAIR      72  63  73 SE5       29.90F                  
MERIDIAN KEY   FAIR      75  61  61 SE3       29.96F                  
6HR MIN TEMP:  74; 6HR MAX TEMP:  79;                                

MERIDIAN NAS   MOCLDY    72  62  71 SE5       29.97F                  
6HR MIN TEMP:  72; 6HR MAX TEMP:  78;                                

RAYMOND        FAIR      73  68  83 SE7       29.89F                  
VICKSBURG VKS  CLEAR     75  64  69 S9G16     29.86F                  
$$

MSZ059>079-180100-
SOUTH MISSISSIPPI
  
CITY           SKY/WX    TMP DP  RH WIND       PRES   REMARKS
HATTIESBURG    FAIR      73  60  63 S12       29.97F                  
6HR MIN TEMP:  73; 6HR MAX TEMP:  81;                                

LAUREL         CLEAR     74  63  67 SE6       29.96F                  
MCCOMB         FAIR      72  62  71 SE10      29.92F                  
6HR MIN TEMP:  72; 6HR MAX TEMP:  79;                                

NATCHEZ        FAIR      74  64  71 S10       29.88F                  
6HR MIN TEMP:  73; 6HR MAX TEMP:  80;                                

PINE BELT      FAIR      71  62  73 S6        29.97F                  
6HR MIN TEMP:  71; 6HR MAX TEMP:  79;                                

$$

MSZ080>082-180100-
COASTAL MISSISSIPPI
  
CITY           SKY/WX    TMP DP  RH WIND       PRES   REMARKS
BAY ST LOUIS   PTCLDY    70  64  83 SE8       29.96F                  
BILOXI         FAIR      71  62  71 SE8       29.98F                  
6HR MIN TEMP:  71; 6HR MAX TEMP:  75;                                

PASCAGOULA     FAIR      73  61  65 SE7       29.99F                  
6HR MIN TEMP:  73; 6HR MAX TEMP:  80;                                

GULFPORT       FAIR      72  63  73 SE12      29.97F                  
6HR MIN TEMP:  72; 6HR MAX TEMP:  76;                                

$$

LAZ007>009-015>016-023>026-180100-
NORTHEAST LOUISIANA
  
CITY           SKY/WX    TMP DP  RH WIND       PRES   REMARKS
BASTROP        FAIR      74  64  69 SE6       29.84F                  
TALLULAH/VBURG FAIR      74  64  71 SE10      29.85F                  
6HR MIN TEMP:  73; 6HR MAX TEMP:  77;                                

VIDALIA        FAIR      75  65  72 SE8       29.85F                  
$$